Weather History for KI75 - November, 2011

Change the Weather History Date:

Thursday, November 3, 2011

  Actual Average (KLWD) Record (KLWD)
Temperature  
Mean Temperature 42 °F 46 °F  
Max Temperature 50 °F 56 °F 75 °F (2008)
Min Temperature 35 °F 36 °F 7 °F (1991)
Degree Days  
Heating Degree Days 22 19  
Month to date heating degree days 56  
Since 1 July heating degree days 540  
Cooling Degree Days 0 0  
Month to date cooling degree days 0  
Year to date cooling degree days 946  
Moisture  
Dew Point 32 °F    
Average Humidity 73    
Maximum Humidity 100    
Minimum Humidity 40    
Precipitation  
Precipitation 0.00 in 0.12 in 1.08 in (1981)
Month to date precipitation 0.36  
Sea Level Pressure  
Sea Level Pressure 30.15 in    
Wind  
Wind Speed 15 mph (North)    
Max Wind Speed 23 mph    
Max Gust Speed 33 mph    
Visibility 10 miles    
Events Rain    
T = Trace of Precipitation, MM = Missing Value Source: NWS Daily Summary

Daily Weather History Graph

Daily Weather History Graph

Search for Another Location

Airport or City:

Trip Planner

Search our weather history database for the weather conditions in past years. The results will help you decide how hot, cold, wet, or windy it might be!

Date:

Astronomy

Nov. 03, 2011 Rise Set
Actual Time 7:47 AM CDT 6:08 PM CDT
Civil Twilight 7:19 AM CDT 6:36 PM CDT
Nautical Twilight 6:46 AM CDT 7:09 PM CDT
Astronomical Twilight 6:14 AM CDT 7:41 PM CDT
Moon 2:35 PM CDT (11/3) 12:57 AM CDT (11/3)
Length of Visible Light 11h 17m
Length of Day
10h 20m
First Quarter, 60% of the Moon is Illuminated
Nov 3
First Quarter
Nov 10
Full
Nov 18
Last Quarter
Nov 25
New
Dec 2
First Quarter

Hourly Weather History & Observations

Time (CDT) Temp. Windchill Dew Point Humidity Pressure Visibility Wind Dir Wind Speed Gust Speed Precip Events Conditions
12:15 AM 35.6 °F 26.6 °F 35.6 °F 100% 30.11 in 10.0 mi North 13.8 mph 18.4 mph N/A Rain Light Rain
12:35 AM 35.6 °F 28.6 °F 35.6 °F 100% 30.13 in 10.0 mi North 9.2 mph 17.3 mph N/A   Light Drizzle
12:55 AM 35.6 °F 27.1 °F 35.6 °F 100% 30.11 in 10.0 mi North 12.7 mph - N/A   Overcast
1:15 AM 35.6 °F 27.1 °F 35.6 °F 100% 30.10 in 10.0 mi North 12.7 mph - N/A   Overcast
1:35 AM 37.4 °F 30.3 °F 35.6 °F 93% 30.09 in 10.0 mi North 10.4 mph - N/A   Overcast
1:55 AM 37.4 °F 29.3 °F 35.6 °F 93% 30.08 in 10.0 mi North 12.7 mph 18.4 mph N/A   Overcast
2:15 AM 37.4 °F 27.8 °F 35.6 °F 93% 30.05 in 10.0 mi North 17.3 mph - N/A   Overcast
2:35 AM 37.4 °F 28.9 °F 35.6 °F 93% 30.04 in 10.0 mi North 13.8 mph - N/A   Overcast
2:55 AM 37.4 °F 28.9 °F 35.6 °F 93% 30.04 in 10.0 mi North 13.8 mph 19.6 mph N/A   Overcast
3:15 AM 37.4 °F 27.8 °F 35.6 °F 93% 30.05 in 10.0 mi NNW 17.3 mph 24.2 mph N/A   Overcast
3:35 AM 37.4 °F 28.2 °F 33.8 °F 87% 30.07 in 10.0 mi NNW 16.1 mph 21.9 mph N/A   Overcast
3:55 AM 37.4 °F 28.9 °F 33.8 °F 87% 30.08 in 10.0 mi NNW 13.8 mph - N/A   Overcast
4:15 AM 37.4 °F 27.8 °F 32.0 °F 81% 30.08 in 10.0 mi NNW 17.3 mph - N/A   Overcast
4:35 AM 37.4 °F 28.2 °F 32.0 °F 81% 30.09 in 10.0 mi NNW 16.1 mph 24.2 mph N/A   Overcast
4:55 AM 37.4 °F 27.5 °F 32.0 °F 81% 30.09 in 10.0 mi NNW 18.4 mph 23.0 mph N/A   Overcast
5:15 AM 37.4 °F 28.2 °F 32.0 °F 81% 30.09 in 10.0 mi NNW 16.1 mph 24.2 mph N/A   Overcast
5:35 AM 37.4 °F 27.8 °F 32.0 °F 81% 30.09 in 10.0 mi NNW 17.3 mph 23.0 mph N/A   Overcast
5:55 AM 37.4 °F 28.2 °F 32.0 °F 81% 30.10 in 10.0 mi North 16.1 mph 21.9 mph N/A   Overcast
6:15 AM 37.4 °F 28.5 °F 32.0 °F 81% 30.10 in 10.0 mi North 15.0 mph 21.9 mph N/A   Overcast
6:35 AM 37.4 °F 27.5 °F 32.0 °F 81% 30.11 in 10.0 mi North 18.4 mph 24.2 mph N/A   Overcast
6:55 AM 37.4 °F 28.9 °F 32.0 °F 81% 30.13 in 10.0 mi North 13.8 mph 23.0 mph N/A   Overcast
7:15 AM 37.4 °F 28.2 °F 32.0 °F 81% 30.14 in 10.0 mi North 16.1 mph 24.2 mph N/A   Overcast
7:35 AM 37.4 °F 28.2 °F 32.0 °F 81% 30.14 in 10.0 mi NNW 16.1 mph 24.2 mph N/A   Overcast
7:55 AM 37.4 °F 27.8 °F 32.0 °F 81% 30.15 in 10.0 mi NNW 17.3 mph 24.2 mph N/A   Overcast
8:15 AM 37.4 °F 28.5 °F 32.0 °F 81% 30.15 in 10.0 mi NNW 15.0 mph - N/A   Overcast
8:35 AM 37.4 °F 27.8 °F 32.0 °F 81% 30.15 in 10.0 mi North 17.3 mph 25.3 mph N/A   Mostly Cloudy
8:55 AM 37.4 °F 28.2 °F 32.0 °F 81% 30.16 in 10.0 mi North 16.1 mph 26.5 mph N/A   Overcast
9:15 AM 37.4 °F 28.5 °F 32.0 °F 81% 30.17 in 10.0 mi North 15.0 mph 23.0 mph N/A   Scattered Clouds
9:35 AM 37.4 °F 28.2 °F 32.0 °F 81% 30.19 in 10.0 mi NNW 16.1 mph 23.0 mph N/A   Scattered Clouds
9:55 AM 37.4 °F 28.9 °F 32.0 °F 81% 30.19 in 10.0 mi NNW 13.8 mph - N/A   Clear
10:15 AM 41.0 °F 31.6 °F 32.0 °F 70% 30.19 in 10.0 mi North 20.7 mph - N/A   Clear
10:35 AM 42.8 °F 34.0 °F 32.0 °F 66% 30.18 in 10.0 mi North 20.7 mph 28.8 mph N/A   Clear
10:55 AM 42.8 °F 34.0 °F 32.0 °F 66% 30.18 in 10.0 mi North 20.7 mph 29.9 mph N/A   Clear
11:15 AM 42.8 °F 35.1 °F 32.0 °F 66% 30.19 in 10.0 mi North 16.1 mph 28.8 mph N/A   Clear
11:35 AM 42.8 °F 34.8 °F 32.0 °F 66% 30.20 in 10.0 mi North 17.3 mph 27.6 mph N/A   Clear
11:55 AM 44.6 °F 35.9 °F 32.0 °F 61% 30.20 in 10.0 mi North 23.0 mph 33.4 mph N/A   Clear
12:15 PM 44.6 °F 36.9 °F 32.0 °F 61% 30.20 in 10.0 mi North 18.4 mph 23.0 mph N/A   Clear
12:35 PM 46.4 °F 39.0 °F 30.2 °F 53% 30.19 in 10.0 mi North 19.6 mph 29.9 mph N/A   Clear
12:55 PM 46.4 °F 38.7 °F 32.0 °F 57% 30.19 in 10.0 mi North 20.7 mph 26.5 mph N/A   Clear
1:15 PM 48.2 °F - 32.0 °F 54% 30.18 in 10.0 mi North 15.0 mph 23.0 mph N/A   Clear
1:35 PM 50.0 °F - 30.2 °F 47% 30.18 in 10.0 mi North 18.4 mph 24.2 mph N/A   Clear
2:15 PM 50.0 °F - 30.2 °F 47% 30.18 in 10.0 mi NNW 17.3 mph 23.0 mph N/A   Clear
2:35 PM 50.0 °F - 30.2 °F 47% 30.18 in 10.0 mi North 19.6 mph - N/A   Clear
2:55 PM 50.0 °F - 30.2 °F 47% 30.17 in 10.0 mi NNW 16.1 mph - N/A   Clear
3:15 PM 50.0 °F - 28.4 °F 43% 30.17 in 10.0 mi NNW 18.4 mph 23.0 mph N/A   Clear
3:35 PM 50.0 °F - 30.2 °F 47% 30.18 in 10.0 mi North 15.0 mph 21.9 mph N/A   Clear
3:55 PM 50.0 °F - 28.4 °F 43% 30.18 in 10.0 mi NNW 16.1 mph - N/A   Clear
4:15 PM 50.0 °F - 26.6 °F 40% 30.19 in 10.0 mi North 15.0 mph - N/A   Clear
5:15 PM 48.2 °F - 26.6 °F 43% 30.21 in 10.0 mi North 11.5 mph - N/A   Clear
5:35 PM 46.4 °F 41.9 °F 28.4 °F 50% 30.21 in 10.0 mi North 9.2 mph 16.1 mph N/A   Clear
6:35 PM 41.0 °F 36.4 °F 30.2 °F 65% 30.22 in 10.0 mi North 6.9 mph - N/A   Clear
6:55 PM 39.2 °F 34.2 °F 30.2 °F 70% 30.22 in 10.0 mi North 6.9 mph - N/A   Clear
7:15 PM 39.2 °F 35.0 °F 30.2 °F 70% 30.23 in 10.0 mi NNW 5.8 mph - N/A   Clear
7:35 PM 37.4 °F 33.8 °F 28.4 °F 70% 30.24 in 10.0 mi NW 4.6 mph - N/A   Clear
7:55 PM 37.4 °F 33.8 °F 30.2 °F 75% 30.24 in 10.0 mi NNW 4.6 mph - N/A   Clear
8:15 PM 37.4 °F 32.1 °F 28.4 °F 70% 30.24 in 10.0 mi NNW 6.9 mph - N/A   Clear
8:35 PM 35.6 °F 30.7 °F 28.4 °F 75% 30.24 in 10.0 mi NW 5.8 mph - N/A   Clear
8:55 PM 35.6 °F 29.9 °F 28.4 °F 75% 30.24 in 10.0 mi NNW 6.9 mph - N/A   Clear
9:15 PM 33.8 °F 28.6 °F 28.4 °F 81% 30.24 in 10.0 mi NNW 5.8 mph - N/A   Clear
9:35 PM 35.6 °F 30.7 °F 30.2 °F 81% 30.24 in 10.0 mi NNW 5.8 mph - N/A   Clear
9:55 PM 33.8 °F 27.7 °F 28.4 °F 81% 30.25 in 10.0 mi NNW 6.9 mph - N/A   Clear
10:15 PM 33.8 °F 28.6 °F 30.2 °F 87% 30.25 in 10.0 mi NNW 5.8 mph - N/A   Clear
10:35 PM 33.8 °F 27.7 °F 28.4 °F 81% 30.25 in 10.0 mi NNW 6.9 mph - N/A   Clear
10:55 PM 33.8 °F 28.6 °F 28.4 °F 81% 30.25 in 10.0 mi North 5.8 mph - N/A   Clear
11:35 PM 32.0 °F 26.4 °F 28.4 °F 87% 30.26 in 10.0 mi North 5.8 mph - N/A   Clear
11:55 PM 32.0 °F 25.6 °F 28.4 °F 87% 30.26 in 10.0 mi North 6.9 mph - N/A   Clear